This is the latest recevied weather packets stored in our database for station/object W2EH. If no packets are shown the sender has not sent any weather packets the latest 10 day(s).
| Time | Temp. | Humidity | Pressure | Rain* | Wind** | Luminosity | Snow |
|---|---|---|---|---|---|---|---|
| 1777737928 | 18.33° C | 59% | 1021.8 hPa | 0 mm | - | 55 W/m² | - |
| 1777737626 | 18.33° C | 58% | 1022.2 hPa | 0 mm | - | 55 W/m² | - |
| 1777737325 | 18.33° C | 61% | 1021.9 hPa | 0 mm | - | 64 W/m² | - |
| 1777737021 | 18.33° C | 59% | 1021.8 hPa | 0 mm | - | 71 W/m² | - |
| 1777736716 | 18.33° C | 58% | 1021.9 hPa | 0 mm | - | 51 W/m² | - |
| 1777736072 | 17.78° C | 63% | 1021.9 hPa | 0 mm | - | 588 W/m² | - |
| 1777735769 | 17.78° C | 61% | 1021.9 hPa | 0 mm | - | 546 W/m² | - |
| 1777735466 | 17.78° C | 64% | 1022.1 hPa | 0 mm | - | 493 W/m² | - |
| 1777735164 | 17.22° C | 66% | 1022 hPa | 0 mm | - | 478 W/m² | - |
| 1777734860 | 17.22° C | 64% | 1021.7 hPa | 0 mm | - | 460 W/m² | - |
| 1777734558 | 16.67° C | 77% | 1021.8 hPa | 0 mm | - | 515 W/m² | - |
| 1777734254 | 16.11° C | 74% | 1021.9 hPa | 0 mm | - | 474 W/m² | - |
| 1777733951 | 16.11° C | 72% | 1021.8 hPa | 0 mm | - | 261 W/m² | - |
| 1777733647 | 15.56° C | 74% | 1021.9 hPa | 0 mm | - | 135 W/m² | - |
| 1777733343 | 15.56° C | 77% | 1021.8 hPa | 0 mm | - | 132 W/m² | - |
| 1777733041 | 15.56° C | 78% | 1021.7 hPa | 0 mm | - | 70 W/m² | - |
| 1777732737 | 15° C | 78% | 1021.8 hPa | 0 mm | - | 42 W/m² | - |
| 1777732434 | 15° C | 79% | 1021.6 hPa | 0 mm | - | 107 W/m² | - |
| 1777732131 | 14.44° C | 81% | 1021.8 hPa | 0 mm | - | 41 W/m² | - |
| 1777731828 | 14.44° C | 85% | 1021.7 hPa | 0 mm | - | 43 W/m² | - |
| 1777731525 | 13.89° C | 85% | 1021.5 hPa | 0 mm | - | 81 W/m² | - |
| 1777731223 | 13.89° C | 85% | 1021.7 hPa | 0 mm | - | 39 W/m² | - |
| 1777730920 | 13.33° C | 87% | 1021.8 hPa | 0 mm | - | 35 W/m² | - |
| 1777730618 | 13.33° C | 88% | 1021.6 hPa | 0 mm | - | 33 W/m² | - |
| 1777730314 | 12.78° C | 89% | 1021.5 hPa | 0 mm | - | 37 W/m² | - |
* Rain latest hour (hover to see other rain measurements)
** Current wind speed in m/s (hover to see current wind gust speed)